STARLINK-32510, 62040

Orbit data source: Space-Track

STARLINK-32510, 62040 is a payload satellite owned by SpaceX/Seattle (US) in LEO that was launched on Thu, 21 Nov 2024 UTC via an FALCON 9 launch vehicle from the Air Force Eastern Test Range (AFETR). Payload-class satellites include a variety of spacecraft equipped with specific instruments for various scientific and technological missions. These include communications satellites like Starlink; space stations such as the ISS; scientific satellites like the Hubble; Earth observation satellites from companies like Planet Labs, Umbra, and HawkEye 360; GPS; miniature CubeSats for education and research; and military/defense satellites.

Loading next visibility...
Identifier
62040, 2024-216J
Orbit
LEO
Last TLE update
21 hours ago
Origin
Manufacturer
SpaceX/Seattle
Mission
Operational Commercial Communications
Bus & Motor
STARLINK V2M, Unknown motor
Mass
730 kg wet, ~700 kg dry
Launch date (UTC)
2024-11-21 (7 months ago)
Launch vehicle
FALCON 9
Launch site
Air Force Eastern Test Range (AFETR)
Object type
Payload
Rocket body
Debris
Shape & HBR
Box + 2 Pan, 29 m
Radar Cross Section
36.964 m², Large (>1 m²)

Expand to show TLE details & history

TLE from 21 hours ago
0 STARLINK-32510
1 62040U 24216J   25181.52747292  .00015968  00000-0  58812-3 0  9998
2 62040  42.9978 247.9313 0001833 268.7082  91.3560 15.27602852 35224
Epoch: 2025-06-30T12:39Z
TLE epoch observation values (Epoch: 2025-06-30T12:39:33.66Z)
Latitude
0.00002°
Longitude
139.20507°
Altitude
482.786 km
Speed
7.626 km/s
True Right ascension
16h 31m 43s
True Declination
0° 00' 00"
Sunlit
Object was in full shadow at epoch
Visualization orbit readout
Latitude
41.10737°
Longitude
-157.13999°
Altitude
486.778 km
Speed
7.627 km/s
Apparent Right ascension
17h 36m 45s
Apparent Declination
44° 21' 58"
Sunlit
Object is in daylight
Visualization observer readout
Local Sidereal Time
21:01:09
Azimuth
294.047° NW
Elevation
52.464°
Doppler factor
1
Orbital elements
Apogee altitude
486.184 km
Perigee altitude
483.668 km
Semi-major axis
6,863.063 km
Eccentricity
0.00018
Inclination
42.9978°
RAAN
247.9313°
Arg. of periapsis
268.7082°
True anomaly
Unknown
Mean anomaly
91.356°
Eccentric anomaly
Unknown
Mean motion
3.81739 °/min
Orbital period
94.31 mins
BSTAR
0.00058812
Loading maneuver chart data...
Loading SW <> Apogee altitude chart data...
Loading historical data...
Loading historical data...
Loading historical data...
Loading historical data...
Loading historical data...
Loading historical data...
Loading historical data...

STARLINK-32510 Visibility forecast

Observer location: undefined°, undefined°

Span
Click to sort rows by Start time (UTC) header in descending order
Start Az.
Max El. time (UTC)
Max El. Az.
Max El.
End time (UTC)
End Az.
4 mins2025-07-01 09:22:53.320Z292.529° NW2025-07-01 09:23:53.320Z21.132° NNE41.521°2025-07-01 09:26:53.320Z69.936° E
5 mins2025-07-01 11:00:53.320Z297.844° NW2025-07-01 11:02:53.320Z13.476° NNE38.863°2025-07-01 11:05:53.320Z81.929° E
5 mins2025-07-01 12:39:53.320Z279.373° WNW2025-07-01 12:41:53.320Z194.492° SSW42.686°2025-07-01 12:44:53.320Z121.683° SE
5 mins2025-07-02 07:14:53.320Z206.641° SW2025-07-02 07:16:53.320Z152.019° SSE31.265°2025-07-02 07:19:53.320Z85.501° E
5 mins2025-07-02 08:53:53.320Z270.597° WNW2025-07-02 08:55:53.320Z2.565° NNE42.531°2025-07-02 08:58:53.320Z69.432° E
|